Canby, MN

7:25 AM CST on February 22, 2017 (GMT -0600)
Canby

Weather History for KCNB - November, 2013

Change the Weather History Date:

Saturday, November 9, 2013

  Actual Average (KMML) Record (KMML)
Temperature  
Mean Temperature 38 °F -  
Max Temperature 46 °F 43 °F 71 °F (1999)
Min Temperature 29 °F 26 °F 9 °F (1973)
Degree Days  
Heating Degree Days 28    
Moisture  
Dew Point 31 °F    
Average Humidity 69    
Maximum Humidity 85    
Minimum Humidity 50    
Precipitation  
Precipitation 0.00 in - - ()
Sea Level Pressure  
Sea Level Pressure 30.03 in    
Wind  
Wind Speed 17 mph (WNW)    
Max Wind Speed 29 mph    
Max Gust Speed 38 mph    
Visibility 10 miles    
Events      
Averages and records for this station are not official NWS values.
T = Trace of Precipitation, MM = Missing Value Source: NWS Daily Summary

Daily Weather History Graph

Daily Weather History Graph

Search for Another Location

Airport or City:

Trip Planner

Search our weather history database for the weather conditions in past years. The results will help you decide how hot, cold, wet, or windy it might be!

Date:

Astronomy

Nov. 09, 2013 Rise Set
Actual Time 7:14 AM CST 5:02 PM CST
Civil Twilight 6:43 AM CST 5:34 PM CST
Nautical Twilight 6:08 AM CST 6:09 PM CST
Astronomical Twilight 5:33 AM CST 6:43 PM CST
Moon 12:49 PM CST (11/9) 11:38 PM CST (11/9)
Length of Visible Light 10h 51m
Length of Day
9h 48m
Waxing Crescent, 44% of the Moon is Illuminated
Nov 9
Waxing Crescent
Nov 9
First Quarter
Nov 17
Full
Nov 25
Last Quarter
Dec 2
New

Hourly Weather History & Observations

Time (CST) Temp. Windchill Dew Point Humidity Pressure Visibility Wind Dir Wind Speed Gust Speed Precip Events Conditions
12:14 AM 43.7 °F 37.7 °F 39.6 °F 85% 29.71 in 10.0 mi West 11.5 mph - N/A   Scattered Clouds
12:34 AM 44.4 °F 37.5 °F 39.6 °F 83% 29.73 in 10.0 mi WSW 15.0 mph 19.6 mph N/A   Mostly Cloudy
12:54 AM 44.8 °F 38.0 °F 39.6 °F 82% 29.73 in 10.0 mi West 15.0 mph - N/A   Overcast
1:14 AM 45.5 °F 39.6 °F 39.7 °F 80% 29.74 in 10.0 mi West 12.7 mph 19.6 mph N/A   Overcast
1:35 AM 45.9 °F 39.7 °F 39.7 °F 79% 29.74 in 10.0 mi WSW 13.8 mph 19.6 mph N/A   Overcast
1:54 AM 46.0 °F 39.3 °F 39.2 °F 77% 29.74 in 10.0 mi West 16.1 mph 20.7 mph N/A   Overcast
2:14 AM 46.4 °F 39.8 °F 38.7 °F 74% 29.75 in 10.0 mi West 16.1 mph 21.9 mph N/A   Overcast
2:35 AM 45.7 °F 38.8 °F 38.3 °F 75% 29.76 in 10.0 mi West 16.1 mph 23.0 mph N/A   Overcast
2:54 AM 45.5 °F 38.9 °F 37.6 °F 74% 29.77 in 10.0 mi West 15.0 mph 20.7 mph N/A   Overcast
3:14 AM 45.5 °F 38.1 °F 37.4 °F 73% 29.78 in 10.0 mi West 18.4 mph 26.5 mph N/A   Overcast
3:34 AM 45.0 °F 37.6 °F 37.4 °F 75% 29.79 in 10.0 mi WNW 17.3 mph 26.5 mph N/A   Overcast
3:54 AM 45.0 °F 37.4 °F 37.4 °F 75% 29.80 in 10.0 mi WNW 18.4 mph 24.2 mph N/A   Overcast
4:15 AM 44.6 °F 37.4 °F 37.4 °F 76% 29.81 in 10.0 mi WNW 16.1 mph 21.9 mph N/A   Overcast
4:34 AM 43.9 °F 36.8 °F 37.4 °F 78% 29.81 in 10.0 mi WNW 15.0 mph 23.0 mph N/A   Overcast
4:54 AM 44.1 °F 36.8 °F 37.4 °F 77% 29.83 in 10.0 mi WNW 16.1 mph - N/A   Overcast
5:15 AM 44.4 °F 36.1 °F 37.2 °F 76% 29.84 in 10.0 mi WNW 20.7 mph 26.5 mph N/A   Overcast
5:34 AM 44.1 °F 35.2 °F 36.9 °F 76% 29.85 in 10.0 mi West 23.0 mph 27.6 mph N/A   Overcast
5:54 AM 43.9 °F 35.0 °F 36.1 °F 74% 29.87 in 10.0 mi WNW 23.0 mph 32.2 mph N/A   Overcast
6:14 AM 42.8 °F 34.3 °F 35.6 °F 76% 29.87 in 10.0 mi WNW 19.6 mph 24.2 mph N/A   Mostly Cloudy
6:34 AM 42.4 °F 35.0 °F 36.0 °F 78% 29.88 in 10.0 mi WNW 15.0 mph 24.2 mph N/A   Overcast
6:54 AM 42.4 °F 33.8 °F 35.2 °F 76% 29.90 in 10.0 mi WNW 19.6 mph 25.3 mph N/A   Overcast
7:14 AM 41.9 °F 32.8 °F 33.8 °F 73% 29.91 in 10.0 mi WNW 20.7 mph 32.2 mph N/A   Overcast
7:35 AM 41.5 °F 33.5 °F 33.8 °F 74% 29.92 in 10.0 mi WNW 16.1 mph 25.3 mph N/A   Overcast
7:54 AM 41.0 °F 34.3 °F 34.2 °F 77% 29.94 in 10.0 mi WNW 11.5 mph 19.6 mph N/A   Overcast
8:14 AM 41.0 °F 34.3 °F 34.2 °F 77% 29.95 in 10.0 mi WNW 11.5 mph - N/A   Overcast
8:34 AM 40.6 °F 32.0 °F 33.8 °F 77% 29.96 in 10.0 mi WNW 17.3 mph 24.2 mph N/A   Scattered Clouds
8:54 AM 41.4 °F 31.4 °F 32.4 °F 70% 29.98 in 10.0 mi WNW 24.2 mph 38.0 mph N/A   Clear
9:15 AM 41.2 °F 31.4 °F 32.0 °F 70% 29.98 in 10.0 mi WNW 23.0 mph 38.0 mph N/A   Mostly Cloudy
9:34 AM 41.4 °F 32.7 °F 32.5 °F 71% 30.00 in 10.0 mi WNW 18.4 mph 26.5 mph N/A   Overcast
9:54 AM 41.5 °F 32.1 °F 32.5 °F 70% 30.00 in 10.0 mi WNW 21.9 mph 29.9 mph N/A   Overcast
10:14 AM 41.9 °F 32.6 °F 32.2 °F 68% 30.01 in 10.0 mi WNW 21.9 mph 27.6 mph N/A   Overcast
10:34 AM 43.3 °F 33.8 °F 31.5 °F 63% 30.02 in 10.0 mi WNW 25.3 mph 32.2 mph N/A   Mostly Cloudy
10:54 AM 42.8 °F 33.1 °F 31.5 °F 64% 30.03 in 10.0 mi WNW 25.3 mph 33.4 mph N/A   Mostly Cloudy
11:14 AM 42.4 °F 33.1 °F 31.6 °F 66% 30.03 in 10.0 mi WNW 23.0 mph 36.8 mph N/A   Overcast
11:34 AM 44.1 °F 35.2 °F 32.0 °F 63% 30.03 in 10.0 mi WNW 23.0 mph 28.8 mph N/A   Overcast
11:54 AM 44.6 °F 35.1 °F 31.6 °F 60% 30.03 in 10.0 mi WNW 27.6 mph 32.2 mph N/A   Overcast
12:14 PM 45.0 °F 37.4 °F 30.0 °F 56% 30.04 in 10.0 mi NW 18.4 mph 33.4 mph N/A   Scattered Clouds
12:35 PM 43.7 °F 34.5 °F 28.4 °F 55% 30.04 in 10.0 mi WNW 24.2 mph 32.2 mph N/A   Scattered Clouds
12:54 PM 45.3 °F 36.7 °F 29.5 °F 54% 30.05 in 10.0 mi WNW 24.2 mph 32.2 mph N/A   Scattered Clouds
1:14 PM 45.9 °F 38.0 °F 29.3 °F 52% 30.05 in 10.0 mi WNW 20.7 mph 34.5 mph N/A   Mostly Cloudy
1:34 PM 45.9 °F 37.2 °F 28.6 °F 51% 30.06 in 10.0 mi WNW 25.3 mph 33.4 mph N/A   Overcast
1:54 PM 45.3 °F 36.3 °F 27.5 °F 50% 30.07 in 10.0 mi WNW 26.5 mph 34.5 mph N/A   Scattered Clouds
2:14 PM 44.1 °F 34.6 °F 27.0 °F 51% 30.07 in 10.0 mi WNW 26.5 mph 36.8 mph N/A   Scattered Clouds
2:34 PM 43.5 °F 33.5 °F 26.6 °F 51% 30.08 in 10.0 mi WNW 28.8 mph 36.8 mph N/A   Scattered Clouds
2:54 PM 44.1 °F 34.8 °F 26.2 °F 50% 30.09 in 10.0 mi WNW 25.3 mph 35.7 mph N/A   Clear
3:14 PM 43.5 °F 34.7 °F 26.2 °F 51% 30.10 in 10.0 mi WNW 21.9 mph 34.5 mph N/A   Scattered Clouds
3:34 PM 43.7 °F 34.1 °F 26.2 °F 50% 30.10 in 10.0 mi WNW 26.5 mph 35.7 mph N/A   Clear
3:54 PM 43.2 °F 33.8 °F 26.1 °F 51% 30.11 in 10.0 mi WNW 24.2 mph 35.7 mph N/A   Clear
4:15 PM 42.1 °F 32.6 °F 26.1 °F 53% 30.12 in 10.0 mi WNW 23.0 mph 27.6 mph N/A   Clear
4:34 PM 41.7 °F 31.4 °F 25.7 °F 53% 30.14 in 10.0 mi WNW 26.5 mph 33.4 mph N/A   Clear
4:54 PM 41.0 °F 31.6 °F 25.5 °F 54% 30.15 in 10.0 mi WNW 20.7 mph 25.3 mph N/A   Clear
5:15 PM 39.9 °F 32.1 °F 26.1 °F 58% 30.16 in 10.0 mi WNW 13.8 mph 23.0 mph N/A   Clear
5:34 PM 38.5 °F 29.2 °F 26.4 °F 62% 30.17 in 10.0 mi NW 17.3 mph 21.9 mph N/A   Clear
5:54 PM 37.0 °F 29.8 °F 26.4 °F 65% 30.19 in 10.0 mi NW 10.4 mph 16.1 mph N/A   Clear
6:14 PM 36.0 °F 28.0 °F 26.2 °F 68% 30.20 in 10.0 mi NW 11.5 mph - N/A   Clear
6:34 PM 34.7 °F 26.4 °F 25.7 °F 70% 30.22 in 10.0 mi NNW 11.5 mph - N/A   Clear
6:55 PM 33.3 °F 25.7 °F 25.7 °F 74% 30.23 in 10.0 mi NW 9.2 mph - N/A   Clear
7:14 PM 32.9 °F 25.3 °F 25.5 °F 74% 30.24 in 10.0 mi WNW 9.2 mph - N/A   Clear
7:34 PM 32.9 °F 25.3 °F 25.5 °F 74% 30.25 in 10.0 mi WNW 9.2 mph - N/A   Clear
7:55 PM 32.0 °F 22.5 °F 25.3 °F 76% 30.26 in 10.0 mi WNW 12.7 mph 17.3 mph N/A   Clear
8:14 PM 32.0 °F 21.2 °F 25.0 °F 75% 30.27 in 10.0 mi WNW 16.1 mph 19.6 mph N/A   Clear
8:34 PM 32.0 °F 21.6 °F 24.8 °F 75% 30.27 in 10.0 mi WNW 15.0 mph - N/A   Clear
8:54 PM 32.4 °F 22.5 °F 25.0 °F 74% 30.27 in 10.0 mi NW 13.8 mph - N/A   Clear
9:14 PM 32.9 °F 23.7 °F 25.2 °F 73% 30.28 in 10.0 mi WNW 12.7 mph 20.7 mph N/A   Mostly Cloudy
9:34 PM 33.3 °F 24.1 °F 25.3 °F 73% 30.29 in 10.0 mi NW 12.7 mph 19.6 mph N/A   Overcast
9:54 PM 32.4 °F 23.0 °F 24.8 °F 74% 30.30 in 10.0 mi WNW 12.7 mph - N/A   Scattered Clouds
10:14 PM 31.6 °F 24.4 °F 24.6 °F 75% 30.30 in 10.0 mi West 8.1 mph - N/A   Scattered Clouds
10:34 PM 29.1 °F 20.6 °F 24.3 °F 82% 30.31 in 10.0 mi WNW 9.2 mph - N/A   Clear
10:54 PM 29.1 °F 20.0 °F 24.4 °F 83% 30.32 in 10.0 mi WNW 10.4 mph - N/A   Clear
11:14 PM 29.1 °F 20.0 °F 24.6 °F 83% 30.32 in 10.0 mi WNW 10.4 mph - N/A   Clear
11:34 PM 29.3 °F 20.2 °F 24.6 °F 83% 30.32 in 10.0 mi WNW 10.4 mph - N/A   Clear
11:54 PM 29.3 °F 20.2 °F 24.8 °F 83% 30.32 in 10.0 mi WNW 10.4 mph - N/A   Clear